This is the latest recevied weather packets stored in our database for station/object N9OJR. If no packets are shown the sender has not sent any weather packets the latest 10 day(s).
| Time | Temp. | Humidity | Pressure | Rain* | Wind** | Luminosity | Snow |
|---|---|---|---|---|---|---|---|
| 1778039586 | 8.89° C | 99% | 1004.9 hPa | 3.05 mm | - | 0 W/m² | - |
| 1778039283 | 9.44° C | 99% | 1004.8 hPa | 4.83 mm | - | 0 W/m² | - |
| 1778038980 | 9.44° C | 99% | 1004.9 hPa | 6.1 mm | - | 0 W/m² | - |
| 1778038677 | 9.44° C | 99% | 1004.9 hPa | 4.32 mm | - | 0 W/m² | - |
| 1778038374 | 9.44° C | 99% | 1005 hPa | 3.05 mm | - | 0 W/m² | - |
| 1778038071 | 9.44° C | 99% | 1004.8 hPa | 1.78 mm | - | 0 W/m² | - |
| 1778037768 | 9.44° C | 99% | 1005 hPa | 1.27 mm | - | 0 W/m² | - |
| 1778037464 | 9.44° C | 99% | 1004.8 hPa | 1.27 mm | - | 0 W/m² | - |
| 1778037162 | 9.44° C | 99% | 1004.9 hPa | 1.78 mm | - | 0 W/m² | - |
| 1778036860 | 9.44° C | 99% | 1005.1 hPa | 1.78 mm | - | 0 W/m² | - |
| 1778036557 | 10° C | 99% | 1005 hPa | 1.27 mm | - | 0 W/m² | - |
| 1778036253 | 10° C | 99% | 1005 hPa | 1.27 mm | - | 0 W/m² | - |
| 1778035950 | 10° C | 99% | 1004.9 hPa | 1.78 mm | - | 0 W/m² | - |
| 1778035641 | 10° C | 99% | 1004.9 hPa | 1.78 mm | - | 0 W/m² | - |
| 1778035338 | 10° C | 99% | 1005 hPa | 1.78 mm | - | 0 W/m² | - |
| 1778035034 | 10° C | 99% | 1005 hPa | 1.78 mm | - | 0 W/m² | - |
| 1778034732 | 10° C | 99% | 1005.3 hPa | 1.27 mm | - | 0 W/m² | - |
| 1778034428 | 10° C | 99% | 1005.2 hPa | 1.27 mm | - | 0 W/m² | - |
| 1778034126 | 10° C | 99% | 1005.2 hPa | 0 mm | - | 0 W/m² | - |
| 1778033824 | 10° C | 99% | 1005.5 hPa | 3.05 mm | - | 0 W/m² | - |
| 1778033521 | 10° C | 99% | 1005.2 hPa | 6.1 mm | - | 0 W/m² | - |
| 1778033218 | 10° C | 99% | 1005 hPa | 10.67 mm | - | 0 W/m² | - |
| 1778032915 | 10.56° C | 99% | 1004.9 hPa | 21.59 mm | - | 0 W/m² | - |
| 1778032612 | 10.56° C | 99% | 1005 hPa | 24.64 mm | - | 0 W/m² | - |
| 1778032310 | 11.11° C | 99% | 1004.6 hPa | 13.72 mm | - | 0 W/m² | - |
* Rain latest hour (hover to see other rain measurements)
** Current wind speed in m/s (hover to see current wind gust speed)